SCP
0 0 0 0 0 0 0 0 0 0 0 0 -0 -0 -0 -0 -0 -0 -0 0 0 -0 0 -0 -0 -0 -0 -0 -0 -0 -0 -0 -0 -0 -0 0 0 0 0 0 0 0 0 0 0 0 0 0 0 0 0 0 0 0
0 0 0 0 0 0 0 0 0 0 0 0 0 -0 -0 -0 -0 -0 -0 -0 0 0 -0 0 0 0 0 0 -0 0 -0 -0 -0 0 -0 -0 0 -0 0 0 0 0 0 0 0 0 0 0 0 0 0 0 0 0
0 0 0 0 0 0 0 0 0 0 0 0 0 -0 -0 -0 -0 -0 -0 0 -0 -0 0 0 -0 0 0 0 -0 -0 -0 0 0 0 0 0 0 0 0 0 0 0 0 0 0 0 -0 0 0 0 0 0 0 0
0 0 0 0 0 0 0 0 0 0 0 0 0 0 -0 -0 -0 -0 -0 -0 -0 -0 -0 0 0 -0 0 0 -0 -0 -0 -0 0 0 -0 -0 -0 0 0 0 0 0 0 0 0 0 0 0 0 0 0 0 0 0
0 0 0 0 0 0 0 0 0 0 0 0 0 0 0 0 0 0 0 -0 -0 -0 0 0 0 0 0 -0 -0 -0 -0 -0 -0 -0 0 0 0 0 0 0 0 0 0 0 0 0 0 0 0 0 0 0 0 0
0 0 -0 -0 0 0 0 0 0 0 0 0 0 0 0 0 0 0 0 0 0 -0 -0 -0 0 0 0 0 0 0 -0 -0 -0 -0 0 0 0 0 0 0 0 0 0 0 0 0 0 0 0 0 0 0 0 0
0 0 -0 -0 -0 0 0 0 0 0 0 0 0 0 0 0 0 0 0 0 0 0 -0 -0 -0 -0 0 0 0 0 0 0 0 0 0 0 0 0 0 0 0 0 0 0 0 0 0 0 -0 0 0 0 0 0
0 0 0 0 0 -0 0 0 0 0 0 0 0 0 0 0 0 0 0 0 0 0 0 -0 -0 -0 0 0 0 0 0 0 0 0 0 0 0 0 0 -0 0 -0 -0 0 0 0 0 -0 0 0 0 0 0 0
0 0 0 0 0 0 0 0 0 0 0 0 0 0 0 0 0 0 0 0 0 0 -0 0 -0 -0 -0 -0 -0 0 -0 0 -0 0 0 0 0 -0 -0 -0 -0 -0 0 -0 0 0 -0 0 0 -0 -0 -0 -0 0
0 0 0 0 0 0 0 0 0 0 0 0 0 0 0 0 0 0 0 0 0 0 0 0 0 0 0 0 -0 -0 -0 -0 -0 -0 0 -0 -0 -0 0 -0 -0 -0 -0 -0 -0 0 0 -0 0 -0 -0 -0 0 0
0 0 0 0 0 0 0 0 0 0 0 0 0 0 0 0 0 0 0 0 0 0 0 0 0 0 0 0 0 0 -0 -0 -0 -0 -0 -0 -0 0 -0 -0 -0 -0 -0 -0 -0 0 0 0 0 0 0 0 0 0
0 0 0 0 0 0 0 0 0 0 0 0 0 0 0 0 0 0 0 0 0 0 0 0 0 0 0 0 0 0 0 0 -0 0 0 -0 0 0 0 0 0 0 0 0 0 0 0 0 0 0 0 0 0 0
0 0 0 0 0 0 0 0 0 0 0 0 0 0 0 0 0 0 0 0 0 0 0 0 0 0 0 0 0 0 0 0 0 0 0 0 0 0 0 0 0 0 0 0 0 0 0 0 0 0 0 0 0 0
0 0 0 0 0 0 0 0 0 0 0 0 0 0 0 0 0 0 0 0 0 0 0 0 0 0 0 0 0 0 0 0 0 0 0 0 0 0 0 0 0 0 0 0 0 0 0 0 0 0 0 0 0 0
0 0 0 0 0 0 0 0 0 0 0 0 0 0 0 0 0 0 0 0 0 0 0 0 0 0 0 0 0 0 0 0 0 -0 0 0 0 0 0 0 0 0 0 0 0 0 0 0 0 0 0 0 0 0
0 0 0 0 0 0 0 0 0 0 0 0 0 0 0 0 0 0 0 0 0 0 0 0 0 0 0 0 0 0 0 0 0 0 0 0 0 0 0 -0 -0 0 -0 0 0 0 0 0 0 0 0 0 0 0
0 0 0 0 0 0 0 0 0 0 0 0 0 0 0 0 0 0 0 0 0 0 0 0 0 0 0 0 0 0 0 0 0 0 0 0 0 0 0 0 -0 0 0 0 0 0 0 0 0 0 0 0 0 0
0 0 0 0 0 0 0 0 0 0 0 0 0 0 0 0 0 0 0 0 0 0 0 0 0 0 0 0 0 0 0 0 0 0 0 0 0 0 0 0 0 0 0 0 0 0 0 0 0 0 0 0 0 0
0 0 0 0 0 0 0 0 0 0 0 0 0 0 0 0 0 0 0 0 0 0 0 0 0 0 0 0 0 0 0 0 0 0 0 0 0 0 0 0 0 0 0 0 0 0 0 0 0 0 0 0 0 0
0 0 0 0 0 0 0 0 0 0 0 0 0 0 0 0 0 0 0 0 0 0 0 0 0 0 0 0 0 0 0 0 0 0 0 0 0 0 0 0 0 0 0 0 0 0 0 0 0 0 0 0 0 0
0 0 0 0 0 0 0 0 0 0 0 0 0 0 0 0 0 0 0 0 0 0 0 0 0 0 0 0 0 0 0 0 0 0 0 0 0 0 0 0 0 0 0 0 0 0 0 0 0 0 0 0 0 0
0 0 0 0 0 0 0 0 0 0 0 0 0 0 0 0 0 0 0 0 0 0 0 0 0 0 0 0 0 0 -0 0 0 0 0 0 0 0 0 0 0 0 0 0 0 0 0 0 0 0 0 0 0 0
0 0 0 0 0 0 0 0 0 0 0 0 0 0 0 0 0 0 0 0 0 0 0 0 0 0 0 0 0 0 0 0 0 0 0 0 0 0 0 0 0 0 0 0 0 0 0 0 0 0 0 0 0 0
0 0 0 0 0 0 0 0 0 0 0 0 0 0 0 0 0 0 0 0 0 0 0 0 0 0 0 0 0 0 0 0 0 0 0 0 0 0 0 0 0 0 0 0 0 0 0 0 0 0 0 0 0 0
0 0 0 0 0 0 0 0 0 0 0 0 0 0 0 0 0 0 0 0 0 0 0 0 0 0 0 0 0 0 0 0 0 0 0 0 0 0 0 0 0 0 0 0 0 0 0 0 0 0 0 0 0 0
0 0 0 0 0 0 0 0 0 0 0 0 0 0 0 0 0 0 0 0 0 0 0 0 0 0 0 0 0 0 0 0 0 0 0 0 0 0 0 0 0 0 0 0 0 0 0 0 0 0 0 0 0 0
0 0 0 0 0 0 0 0 0 0 0 0 0 0 0 0 0 0 0 0 0 0 0 0 0 0 0 0 0 0 0 0 0 0 0 0 0 0 0 0 0 0 0 0 0 0 0 0 0 0 0 0 0 0
0 0 0 0 0 0 0 0 0 0 0 0 0 0 0 0 0 0 0 0 0 0 0 0 0 0 0 0 0 0 0 0 0 0 0 0 0 0 0 0 0 0 0 0 0 0 0 0 0 0 0 0 0 0
0 0 0 0 0 0 0 0 0 0 0 0 0 0 0 0 0 0 0 0 0 0 0 0 0 0 0 0 0 0 0 0 0 0 0 0 0 0 0 0 0 0 0 0 0 0 0 0 0 0 0 0 0 0
0 0 0 0 0 0 0 0 0 0 0 0 0 0 0 0 0 0 0 0 0 0 0 0 0 0 0 0 0 0 0 0 0 0 0 0 0 0 0 0 0 0 0 0 0 0 0 0 0 0 0 0 0 0
0 0 0 0 0 0 0 0 0 0 0 0 0 0 0 0 0 0 0 0 0 0 0 0 0 0 0 0 0 0 0 0 0 0 0 0 0 0 0 0 0 0 0 0 0 0 0 0 0 0 0 0 0 0
0 0 0 0 0 0 0 0 0 0 0 0 0 0 0 0 0 0 0 0 0 0 0 0 0 0 0 0 0 0 0 0 0 0 0 0 0 0 0 0 0 0 0 0 0 0 0 0 0 0 0 0 0 0
0 0 0 0 0 0 0 0 0 0 0 0 0 0 0 0 0 0 0 0 0 0 0 0 0 0 0 0 0 0 0 0 0 0 0 0 0 0 0 0 0 0 0 0 0 0 0 0 0 0 0 0 0 0
Wind_Speed_500mb
96 94 86 77 72 69 63 60 56 51 44 38 32 29 29 29 25 18 17 24 13 9 24 14 12 10 13 8 3 6 5 1 3 3 1 3 3 7 4 3 8 10 12 7 6 7 17 17 10 13 1 12 11 15
101 101 91 83 77 73 65 61 59 53 46 39 33 29 28 25 25 20 19 20 12 7 15 13 12 12 12 10 6 8 2 3 4 6 2 4 3 3 2 5 4 7 7 5 14 7 1 24 12 18 15 16 11 20
107 106 96 88 81 77 70 63 60 54 48 41 35 30 26 24 23 21 16 17 13 9 13 11 5 7 11 8 7 7 1 2 2 3 8 3 5 6 6 9 4 8 8 5 3 10 26 27 32 29 19 16 9 22
110 109 99 93 84 79 74 67 62 57 50 43 37 32 27 24 21 16 17 20 9 8 8 8 11 9 7 8 8 5 3 3 3 3 3 2 2 9 3 4 6 2 19 8 9 18 17 32 40 27 24 20 21 35
113 112 102 95 88 82 76 72 66 59 53 45 39 34 29 24 21 18 16 18 14 6 9 7 13 8 10 9 8 9 9 6 2 1 1 2 1 3 1 4 10 24 15 13 12 20 15 7 34 40 29 28 33 50
118 117 106 96 92 86 79 72 68 62 55 48 41 36 31 26 22 19 10 18 18 15 6 5 8 7 7 7 12 12 12 9 6 3 3 3 3 3 4 6 18 42 43 41 8 9 18 11 15 41 31 32 40 47
121 121 110 100 95 91 83 74 69 64 57 50 43 38 34 30 27 16 7 14 21 18 7 9 2 8 14 13 7 7 7 6 7 5 3 3 6 4 5 8 14 18 40 43 31 15 17 19 14 40 40 44 48 48
126 123 114 102 98 92 86 79 72 66 59 52 46 40 35 30 25 19 14 12 18 10 6 6 1 4 20 11 8 8 5 6 2 4 3 4 4 6 11 37 26 16 14 39 43 35 15 18 23 42 46 51 51 47
129 127 117 106 101 94 89 84 76 69 62 55 46 39 31 23 15 19 19 14 16 8 5 7 8 6 20 9 7 7 4 1 3 3 2 2 5 12 22 29 28 42 24 8 45 44 37 22 34 45 52 56 54 52
131 131 122 109 104 99 92 88 81 74 64 56 51 21 15 20 15 22 13 10 13 12 11 7 14 6 15 10 4 5 4 3 3 1 6 7 10 58 60 46 26 11 19 34 42 51 53 45 42 44 55 57 57 53
128 135 125 111 109 101 97 91 87 76 67 61 26 15 24 36 20 13 7 5 6 4 13 12 12 11 13 6 6 5 4 2 1 2 3 4 8 12 7 10 30 60 38 31 34 33 45 44 44 36 37 44 49 47
128 137 126 115 114 105 106 101 97 95 69 48 31 39 37 13 8 9 3 1 6 10 17 20 15 12 14 10 9 4 4 2 5 2 0 7 9 14 16 10 9 18 55 35 33 26 18 32 35 32 32 31 35 39
126 135 129 116 118 111 109 110 102 98 80 62 23 18 13 8 5 16 15 7 5 21 30 25 12 14 11 8 12 5 6 4 1 2 7 11 14 12 7 10 3 3 40 29 39 29 15 22 33 30 29 30 31 37
124 140 129 125 122 115 111 124 112 97 70 18 20 10 12 6 11 10 11 10 16 18 55 48 20 10 9 7 6 8 3 1 2 5 13 5 12 13 11 16 10 7 35 26 30 29 21 18 25 28 25 27 33 40
124 139 132 128 117 128 127 120 114 99 21 15 16 13 13 11 9 18 20 21 17 54 71 28 17 9 5 8 4 9 5 8 11 10 6 8 6 2 3 10 13 15 25 43 28 22 23 18 15 16 21 23 22 25
130 129 142 133 116 131 145 128 108 65 28 22 15 12 9 11 3 17 30 24 44 75 39 11 9 6 4 9 8 15 13 14 8 8 15 6 13 14 10 7 17 23 37 38 26 23 18 14 8 5 7 12 19 26
136 94 133 140 122 139 144 118 65 28 23 19 11 20 26 21 30 25 37 38 66 60 6 11 12 9 14 4 6 10 12 7 11 13 13 22 25 26 33 41 45 40 38 34 28 22 17 10 4 2 6 13 19 24
135 106 136 132 139 148 115 51 43 24 15 13 16 40 33 22 33 27 29 52 56 30 21 8 21 7 11 13 8 9 35 25 14 14 27 35 33 35 37 37 39 36 31 26 18 12 6 1 2 6 12 19 24 26
130 120 142 148 160 109 33 34 34 21 7 27 31 62 38 25 31 29 38 69 37 36 15 17 6 7 8 17 17 11 14 18 19 27 41 42 40 36 32 31 27 23 19 13 7 7 10 14 16 19 22 25 28 31
126 129 160 156 153 42 17 13 33 14 13 23 34 48 27 21 32 34 45 74 45 21 11 8 9 13 13 9 7 11 12 15 29 44 45 45 43 38 32 25 21 17 12 7 10 15 21 25 29 33 33 31 31 32
117 159 165 157 94 37 16 21 17 20 33 16 43 41 22 41 32 33 36 65 25 13 11 21 28 15 15 6 15 15 15 28 43 43 50 45 39 33 30 24 15 8 7 13 20 26 30 34 37 36 34 32 34 34
93 160 133 103 27 14 13 17 34 34 18 35 43 27 23 17 23 33 43 30 17 24 26 33 40 46 33 30 24 17 16 39 42 32 39 37 37 32 26 16 5 8 10 20 28 31 36 38 35 33 33 33 29 25
134 126 101 27 15 12 17 41 15 12 11 18 32 12 5 10 21 36 16 15 24 32 48 44 34 38 41 36 24 14 32 39 32 35 36 35 33 27 17 10 9 14 23 31 36 40 38 33 32 32 29 24 22 20
113 54 23 20 15 10 25 9 15 20 14 8 9 9 5 14 30 11 7 11 21 28 49 57 53 48 41 37 34 29 39 44 37 35 32 30 26 16 15 15 23 26 29 38 39 34 31 30 27 25 20 18 17 17
19 19 22 11 17 16 11 11 7 8 8 7 9 5 6 16 6 7 7 13 37 51 61 55 58 61 60 53 47 46 47 48 46 41 31 30 33 29 22 19 31 38 35 31 29 29 27 23 18 16 15 14 15 15
10 13 13 11 9 14 13 13 13 14 11 7 4 16 14 7 7 11 9 31 50 57 62 61 63 65 64 57 49 47 46 45 41 38 32 28 29 25 29 39 40 34 31 30 26 20 16 13 13 12 11 10 10 11
12 9 10 21 39 40 18 20 22 12 10 13 10 10 8 10 14 7 21 38 44 41 42 46 48 51 52 51 40 36 34 32 33 36 39 39 38 39 39 35 29 26 22 19 17 15 12 10 8 6 5 5 5 4
9 23 37 22 22 23 14 10 10 12 10 24 25 12 24 21 14 17 19 26 29 29 26 27 29 29 28 30 32 36 38 36 36 38 39 38 36 31 25 20 17 15 14 13 10 8 7 4 1 1 3 4 6 8
5 48 58 33 13 15 7 9 9 11 33 49 10 9 10 11 16 17 19 24 28 26 26 25 27 28 29 31 34 36 37 37 37 39 40 32 24 18 16 16 16 14 12 11 11 8 7 7 9 10 13 14 15 15
17 25 14 12 11 7 4 9 21 43 37 32 27 22 17 15 16 20 22 25 29 31 32 32 31 33 33 34 35 34 32 31 30 27 22 22 21 20 21 17 15 15 15 13 12 15 18 17 19 20 18 19 18 15
15 10 20 16 10 11 34 48 54 52 33 22 26 22 22 18 19 21 26 32 35 36 37 37 37 36 33 29 26 26 29 26 23 24 21 22 24 24 23 22 21 19 19 19 20 22 23 25 23 22 21 18 15 10
17 10 13 11 7 26 25 11 13 16 13 11 11 13 17 13 9 18 28 35 38 36 38 38 35 35 34 31 29 25 21 26 28 28 28 28 28 28 27 25 24 24 24 26 28 30 27 25 25 21 16 11 7 7
17 40 39 21 13 10 13 15 12 12 17 9 10 8 8 10 10 12 29 36 35 33 34 35 34 33 33 32 30 30 32 32 33 34 34 32 29 29 29 30 32 31 30 32 33 30 26 21 17 14 9 8 13 20
Wind_Direction_500mb
197 195 200 198 200 199 197 195 193 191 190 192 192 188 189 189 200 210 224 211 203 149 164 189 164 150 145 159 165 171 165 205 67 63 211 163 177 187 191 187 187 176 163 175 133 206 248 164 145 197 18 316 304 198
197 195 200 197 197 199 196 192 191 189 188 187 184 181 185 189 190 190 195 210 208 155 159 178 167 161 156 147 146 158 118 151 176 104 174 114 176 177 20 210 198 211 212 188 208 216 150 198 223 225 274 289 282 201
196 194 200 197 195 199 197 192 189 188 186 183 180 177 174 173 183 181 195 201 185 125 125 152 182 152 146 138 143 138 132 166 174 109 141 117 237 156 192 235 236 236 191 236 195 211 231 233 231 239 261 256 215 193
191 193 200 197 194 198 198 193 189 187 185 182 179 177 175 175 177 184 178 175 188 140 124 183 191 180 185 163 169 168 117 143 125 119 116 140 247 198 255 319 248 221 157 187 266 274 274 253 233 229 236 210 183 176
191 193 199 198 194 195 197 194 190 188 185 184 181 181 178 174 170 177 184 194 191 203 146 133 169 193 185 176 188 173 165 152 152 356 157 257 177 215 230 271 242 191 185 184 211 219 202 215 222 211 210 189 179 173
191 194 197 199 196 193 194 194 192 190 188 187 186 184 184 182 176 166 187 210 201 181 170 127 166 150 150 168 174 171 176 181 185 210 249 269 245 256 251 247 254 213 212 212 209 207 197 210 205 195 192 181 173 174
191 193 196 199 199 193 193 193 192 190 188 187 185 184 182 182 183 189 195 166 180 168 173 101 90 171 179 185 198 170 170 186 187 182 170 215 199 249 246 251 258 232 223 218 218 205 212 205 202 191 189 179 175 176
190 193 196 198 199 194 191 191 190 188 186 184 183 182 180 179 184 185 169 144 158 177 175 116 63 158 177 191 214 201 190 184 159 154 159 219 252 225 254 240 244 232 218 214 215 212 218 214 200 194 190 190 189 189
189 192 195 197 197 195 189 187 188 186 184 184 180 176 174 181 188 198 185 184 193 199 178 149 158 181 170 170 165 141 147 170 291 214 188 225 210 231 228 241 241 230 220 233 205 207 209 207 198 199 198 198 203 203
192 192 194 196 196 193 188 184 186 184 183 176 169 160 167 175 169 156 158 183 203 204 213 157 142 138 166 158 123 133 104 114 222 40 311 232 258 256 252 246 235 203 220 221 194 203 205 206 200 202 209 211 212 214
192 191 193 195 196 193 185 182 182 181 174 163 163 158 153 152 140 172 166 154 191 268 203 160 157 138 172 139 156 183 142 115 169 88 265 268 271 245 257 268 240 232 235 221 220 234 227 223 216 210 206 210 216 219
193 191 192 194 196 195 184 184 185 181 167 166 156 131 133 174 167 120 201 344 218 217 177 152 150 131 141 145 114 136 135 146 210 15 320 259 252 274 274 280 291 253 212 214 205 210 213 215 218 218 219 217 217 214
194 190 190 189 197 194 189 186 188 178 167 153 146 150 159 166 77 176 189 233 243 179 173 154 132 148 133 145 93 115 152 201 66 163 237 238 267 279 291 218 272 192 187 190 203 204 212 206 203 211 213 214 217 214
193 189 188 188 195 193 188 182 182 168 156 150 156 157 194 187 240 185 188 180 174 164 154 143 116 134 129 94 131 122 74 202 90 260 237 249 287 309 272 231 227 216 191 193 179 188 185 171 180 195 202 210 219 223
199 191 188 190 191 188 185 188 178 168 151 152 154 206 195 193 170 181 167 138 137 155 149 121 96 132 100 108 57 116 106 237 221 232 237 273 320 328 210 214 214 200 191 189 177 174 176 172 179 199 209 220 235 241
195 188 187 189 189 181 179 175 166 170 176 166 196 118 114 132 159 173 174 154 155 155 148 135 120 108 151 130 147 209 154 221 233 221 237 190 136 113 97 149 156 133 135 159 169 172 173 181 184 180 215 249 263 268
181 181 184 184 181 177 172 163 164 174 183 187 180 171 155 177 187 184 179 175 163 161 175 140 156 184 115 93 234 198 212 222 221 220 187 156 135 115 107 108 123 122 122 122 121 120 117 117 110 342 326 290 285 284
178 180 182 176 172 164 164 171 175 188 183 160 155 167 166 153 171 174 178 173 165 189 158 188 135 163 184 181 233 226 231 232 237 198 170 158 144 129 122 121 122 120 116 113 110 121 133 159 273 280 293 302 303 303
178 176 177 172 173 160 159 177 184 165 123 153 155 166 166 161 179 187 179 177 181 182 163 160 155 189 215 219 230 240 243 228 212 183 167 161 153 146 141 137 133 129 128 132 154 198 233 253 269 281 287 296 304 303
180 174 168 173 171 161 138 130 183 124 146 157 153 157 163 164 167 170 173 181 183 176 193 198 206 213 214 217 248 280 279 207 189 171 170 167 163 157 151 148 148 150 157 193 243 258 269 280 289 292 295 300 302 302
168 167 170 172 165 168 133 142 135 139 132 129 154 148 137 149 144 166 175 182 186 212 224 217 210 196 187 163 12 322 269 203 184 180 173 175 174 169 164 153 157 175 248 275 282 282 282 285 291 297 300 302 302 299
164 161 159 164 158 119 112 147 132 127 119 143 152 152 143 165 166 179 172 188 217 216 206 220 225 220 233 252 277 299 208 180 180 192 187 188 175 163 161 165 221 318 296 279 272 272 281 293 300 303 303 299 294 290
155 158 159 154 123 102 126 136 101 114 119 163 145 113 151 151 167 163 202 218 215 211 216 223 223 222 227 238 244 250 202 187 185 166 168 159 162 174 200 254 276 298 282 271 273 284 292 296 300 301 296 289 285 288
156 155 152 134 115 109 145 110 110 110 100 155 132 115 167 143 161 203 251 215 209 210 222 227 228 224 224 229 228 226 219 202 184 171 176 185 190 219 275 244 288 301 285 274 280 290 295 294 292 289 285 280 283 291
139 169 129 101 125 116 117 126 108 99 120 142 111 134 179 157 159 210 225 221 218 226 231 230 229 231 233 237 235 222 215 217 219 221 224 220 232 241 245 275 303 292 281 282 289 292 292 289 283 273 272 282 296 309
125 159 139 132 157 119 161 132 154 153 121 106 113 128 141 124 154 233 203 203 215 225 226 224 224 225 227 228 227 223 219 225 228 227 231 220 225 252 277 286 281 277 280 283 284 280 267 255 257 269 283 299 316 325
133 144 132 130 138 118 88 81 127 105 117 142 161 159 145 160 210 226 195 202 211 213 216 216 220 225 230 229 228 227 228 221 224 232 240 242 252 260 260 261 267 272 270 264 254 245 252 263 270 283 306 324 343 358
122 156 144 164 123 126 117 114 133 154 153 153 132 165 168 183 199 189 197 201 205 205 207 206 207 209 211 209 211 214 213 209 209 212 216 224 233 242 251 254 248 237 226 222 227 231 228 220 207 51 65 81 92 101
198 145 139 126 84 59 80 141 154 127 141 161 125 162 166 136 162 174 171 179 183 179 185 187 184 185 189 191 193 196 198 199 202 207 213 217 213 212 214 207 198 190 188 188 179 167 151 128 109 102 106 104 103 102
106 128 96 69 76 88 18 97 123 132 135 132 122 122 122 128 146 156 160 165 165 168 170 167 173 176 180 186 186 183 190 197 200 199 212 210 199 190 184 179 171 162 154 141 129 121 115 114 114 112 113 110 107 105
354 99 74 53 80 54 109 116 117 118 118 109 118 124 121 133 149 148 156 160 163 167 168 168 172 173 174 176 179 178 175 179 185 184 180 182 181 172 160 153 151 144 132 125 121 118 119 120 117 117 114 111 107 94
9 75 118 103 106 142 114 110 78 69 68 77 78 113 125 124 128 156 163 164 165 172 170 168 174 172 169 167 162 161 158 158 156 159 158 159 157 151 147 145 139 132 129 127 125 121 118 118 116 112 106 99 73 7
81 88 92 105 121 177 165 113 72 85 49 63 55 99 98 123 142 155 168 167 167 168 168 166 163 164 163 161 157 151 151 152 150 149 145 144 144 141 138 134 130 131 133 129 124 121 118 115 111 102 78 27 357 344
Wind_Speed_850mb
96 94 86 77 72 69 63 60 56 51 44 38 32 29 29 29 25 18 17 24 13 9 24 14 12 10 13 8 3 6 5 1 3 3 1 3 3 7 4 3 8 10 12 7 6 7 17 17 10 13 1 12 11 15
101 101 91 83 77 73 65 61 59 53 46 39 33 29 28 25 25 20 19 20 12 7 15 13 12 12 12 10 6 8 2 3 4 6 2 4 3 3 2 5 4 7 7 5 14 7 1 24 12 18 15 16 11 20
107 106 96 88 81 77 70 63 60 54 48 41 35 30 26 24 23 21 16 17 13 9 13 11 5 7 11 8 7 7 1 2 2 3 8 3 5 6 6 9 4 8 8 5 3 10 26 27 32 29 19 16 9 22
110 109 99 93 84 79 74 67 62 57 50 43 37 32 27 24 21 16 17 20 9 8 8 8 11 9 7 8 8 5 3 3 3 3 3 2 2 9 3 4 6 2 19 8 9 18 17 32 40 27 24 20 21 35
113 112 102 95 88 82 76 72 66 59 53 45 39 34 29 24 21 18 16 18 14 6 9 7 13 8 10 9 8 9 9 6 2 1 1 2 1 3 1 4 10 24 15 13 12 20 15 7 34 40 29 28 33 50
118 117 106 96 92 86 79 72 68 62 55 48 41 36 31 26 22 19 10 18 18 15 6 5 8 7 7 7 12 12 12 9 6 3 3 3 3 3 4 6 18 42 43 41 8 9 18 11 15 41 31 32 40 47
121 121 110 100 95 91 83 74 69 64 57 50 43 38 34 30 27 16 7 14 21 18 7 9 2 8 14 13 7 7 7 6 7 5 3 3 6 4 5 8 14 18 40 43 31 15 17 19 14 40 40 44 48 48
126 123 114 102 98 92 86 79 72 66 59 52 46 40 35 30 25 19 14 12 18 10 6 6 1 4 20 11 8 8 5 6 2 4 3 4 4 6 11 37 26 16 14 39 43 35 15 18 23 42 46 51 51 47
129 127 117 106 101 94 89 84 76 69 62 55 46 39 31 23 15 19 19 14 16 8 5 7 8 6 20 9 7 7 4 1 3 3 2 2 5 12 22 29 28 42 24 8 45 44 37 22 34 45 52 56 54 52
131 131 122 109 104 99 92 88 81 74 64 56 51 21 15 20 15 22 13 10 13 12 11 7 14 6 15 10 4 5 4 3 3 1 6 7 10 58 60 46 26 11 19 34 42 51 53 45 42 44 55 57 57 53
128 135 125 111 109 101 97 91 87 76 67 61 26 15 24 36 20 13 7 5 6 4 13 12 12 11 13 6 6 5 4 2 1 2 3 4 8 12 7 10 30 60 38 31 34 33 45 44 44 36 37 44 49 47
128 137 126 115 114 105 106 101 97 95 69 48 31 39 37 13 8 9 3 1 6 10 17 20 15 12 14 10 9 4 4 2 5 2 0 7 9 14 16 10 9 18 55 35 33 26 18 32 35 32 32 31 35 39
126 135 129 116 118 111 109 110 102 98 80 62 23 18 13 8 5 16 15 7 5 21 30 25 12 14 11 8 12 5 6 4 1 2 7 11 14 12 7 10 3 3 40 29 39 29 15 22 33 30 29 30 31 37
124 140 129 125 122 115 111 124 112 97 70 18 20 10 12 6 11 10 11 10 16 18 55 48 20 10 9 7 6 8 3 1 2 5 13 5 12 13 11 16 10 7 35 26 30 29 21 18 25 28 25 27 33 40
124 139 132 128 117 128 127 120 114 99 21 15 16 13 13 11 9 18 20 21 17 54 71 28 17 9 5 8 4 9 5 8 11 10 6 8 6 2 3 10 13 15 25 43 28 22 23 18 15 16 21 23 22 25
130 129 142 133 116 131 145 128 108 65 28 22 15 12 9 11 3 17 30 24 44 75 39 11 9 6 4 9 8 15 13 14 8 8 15 6 13 14 10 7 17 23 37 38 26 23 18 14 8 5 7 12 19 26
136 94 133 140 122 139 144 118 65 28 23 19 11 20 26 21 30 25 37 38 66 60 6 11 12 9 14 4 6 10 12 7 11 13 13 22 25 26 33 41 45 40 38 34 28 22 17 10 4 2 6 13 19 24
135 106 136 132 139 148 115 51 43 24 15 13 16 40 33 22 33 27 29 52 56 30 21 8 21 7 11 13 8 9 35 25 14 14 27 35 33 35 37 37 39 36 31 26 18 12 6 1 2 6 12 19 24 26
130 120 142 148 160 109 33 34 34 21 7 27 31 62 38 25 31 29 38 69 37 36 15 17 6 7 8 17 17 11 14 18 19 27 41 42 40 36 32 31 27 23 19 13 7 7 10 14 16 19 22 25 28 31
126 129 160 156 153 42 17 13 33 14 13 23 34 48 27 21 32 34 45 74 45 21 11 8 9 13 13 9 7 11 12 15 29 44 45 45 43 38 32 25 21 17 12 7 10 15 21 25 29 33 33 31 31 32
117 159 165 157 94 37 16 21 17 20 33 16 43 41 22 41 32 33 36 65 25 13 11 21 28 15 15 6 15 15 15 28 43 43 50 45 39 33 30 24 15 8 7 13 20 26 30 34 37 36 34 32 34 34
93 160 133 103 27 14 13 17 34 34 18 35 43 27 23 17 23 33 43 30 17 24 26 33 40 46 33 30 24 17 16 39 42 32 39 37 37 32 26 16 5 8 10 20 28 31 36 38 35 33 33 33 29 25
134 126 101 27 15 12 17 41 15 12 11 18 32 12 5 10 21 36 16 15 24 32 48 44 34 38 41 36 24 14 32 39 32 35 36 35 33 27 17 10 9 14 23 31 36 40 38 33 32 32 29 24 22 20
113 54 23 20 15 10 25 9 15 20 14 8 9 9 5 14 30 11 7 11 21 28 49 57 53 48 41 37 34 29 39 44 37 35 32 30 26 16 15 15 23 26 29 38 39 34 31 30 27 25 20 18 17 17
19 19 22 11 17 16 11 11 7 8 8 7 9 5 6 16 6 7 7 13 37 51 61 55 58 61 60 53 47 46 47 48 46 41 31 30 33 29 22 19 31 38 35 31 29 29 27 23 18 16 15 14 15 15
10 13 13 11 9 14 13 13 13 14 11 7 4 16 14 7 7 11 9 31 50 57 62 61 63 65 64 57 49 47 46 45 41 38 32 28 29 25 29 39 40 34 31 30 26 20 16 13 13 12 11 10 10 11
12 9 10 21 39 40 18 20 22 12 10 13 10 10 8 10 14 7 21 38 44 41 42 46 48 51 52 51 40 36 34 32 33 36 39 39 38 39 39 35 29 26 22 19 17 15 12 10 8 6 5 5 5 4
9 23 37 22 22 23 14 10 10 12 10 24 25 12 24 21 14 17 19 26 29 29 26 27 29 29 28 30 32 36 38 36 36 38 39 38 36 31 25 20 17 15 14 13 10 8 7 4 1 1 3 4 6 8
5 48 58 33 13 15 7 9 9 11 33 49 10 9 10 11 16 17 19 24 28 26 26 25 27 28 29 31 34 36 37 37 37 39 40 32 24 18 16 16 16 14 12 11 11 8 7 7 9 10 13 14 15 15
17 25 14 12 11 7 4 9 21 43 37 32 27 22 17 15 16 20 22 25 29 31 32 32 31 33 33 34 35 34 32 31 30 27 22 22 21 20 21 17 15 15 15 13 12 15 18 17 19 20 18 19 18 15
15 10 20 16 10 11 34 48 54 52 33 22 26 22 22 18 19 21 26 32 35 36 37 37 37 36 33 29 26 26 29 26 23 24 21 22 24 24 23 22 21 19 19 19 20 22 23 25 23 22 21 18 15 10
17 10 13 11 7 26 25 11 13 16 13 11 11 13 17 13 9 18 28 35 38 36 38 38 35 35 34 31 29 25 21 26 28 28 28 28 28 28 27 25 24 24 24 26 28 30 27 25 25 21 16 11 7 7
17 40 39 21 13 10 13 15 12 12 17 9 10 8 8 10 10 12 29 36 35 33 34 35 34 33 33 32 30 30 32 32 33 34 34 32 29 29 29 30 32 31 30 32 33 30 26 21 17 14 9 8 13 20
Wind_Direction_850mb
197 195 200 198 200 199 197 195 193 191 190 192 192 188 189 189 200 210 224 211 203 149 164 189 164 150 145 159 165 171 165 205 67 63 211 163 177 187 191 187 187 176 163 175 133 206 248 164 145 197 18 316 304 198
197 195 200 197 197 199 196 192 191 189 188 187 184 181 185 189 190 190 195 210 208 155 159 178 167 161 156 147 146 158 118 151 176 104 174 114 176 177 20 210 198 211 212 188 208 216 150 198 223 225 274 289 282 201
196 194 200 197 195 199 197 192 189 188 186 183 180 177 174 173 183 181 195 201 185 125 125 152 182 152 146 138 143 138 132 166 174 109 141 117 237 156 192 235 236 236 191 236 195 211 231 233 231 239 261 256 215 193
191 193 200 197 194 198 198 193 189 187 185 182 179 177 175 175 177 184 178 175 188 140 124 183 191 180 185 163 169 168 117 143 125 119 116 140 247 198 255 319 248 221 157 187 266 274 274 253 233 229 236 210 183 176
191 193 199 198 194 195 197 194 190 188 185 184 181 181 178 174 170 177 184 194 191 203 146 133 169 193 185 176 188 173 165 152 152 356 157 257 177 215 230 271 242 191 185 184 211 219 202 215 222 211 210 189 179 173
191 194 197 199 196 193 194 194 192 190 188 187 186 184 184 182 176 166 187 210 201 181 170 127 166 150 150 168 174 171 176 181 185 210 249 269 245 256 251 247 254 213 212 212 209 207 197 210 205 195 192 181 173 174
191 193 196 199 199 193 193 193 192 190 188 187 185 184 182 182 183 189 195 166 180 168 173 101 90 171 179 185 198 170 170 186 187 182 170 215 199 249 246 251 258 232 223 218 218 205 212 205 202 191 189 179 175 176
190 193 196 198 199 194 191 191 190 188 186 184 183 182 180 179 184 185 169 144 158 177 175 116 63 158 177 191 214 201 190 184 159 154 159 219 252 225 254 240 244 232 218 214 215 212 218 214 200 194 190 190 189 189
189 192 195 197 197 195 189 187 188 186 184 184 180 176 174 181 188 198 185 184 193 199 178 149 158 181 170 170 165 141 147 170 291 214 188 225 210 231 228 241 241 230 220 233 205 207 209 207 198 199 198 198 203 203
192 192 194 196 196 193 188 184 186 184 183 176 169 160 167 175 169 156 158 183 203 204 213 157 142 138 166 158 123 133 104 114 222 40 311 232 258 256 252 246 235 203 220 221 194 203 205 206 200 202 209 211 212 214
192 191 193 195 196 193 185 182 182 181 174 163 163 158 153 152 140 172 166 154 191 268 203 160 157 138 172 139 156 183 142 115 169 88 265 268 271 245 257 268 240 232 235 221 220 234 227 223 216 210 206 210 216 219
193 191 192 194 196 195 184 184 185 181 167 166 156 131 133 174 167 120 201 344 218 217 177 152 150 131 141 145 114 136 135 146 210 15 320 259 252 274 274 280 291 253 212 214 205 210 213 215 218 218 219 217 217 214
194 190 190 189 197 194 189 186 188 178 167 153 146 150 159 166 77 176 189 233 243 179 173 154 132 148 133 145 93 115 152 201 66 163 237 238 267 279 291 218 272 192 187 190 203 204 212 206 203 211 213 214 217 214
193 189 188 188 195 193 188 182 182 168 156 150 156 157 194 187 240 185 188 180 174 164 154 143 116 134 129 94 131 122 74 202 90 260 237 249 287 309 272 231 227 216 191 193 179 188 185 171 180 195 202 210 219 223
199 191 188 190 191 188 185 188 178 168 151 152 154 206 195 193 170 181 167 138 137 155 149 121 96 132 100 108 57 116 106 237 221 232 237 273 320 328 210 214 214 200 191 189 177 174 176 172 179 199 209 220 235 241
195 188 187 189 189 181 179 175 166 170 176 166 196 118 114 132 159 173 174 154 155 155 148 135 120 108 151 130 147 209 154 221 233 221 237 190 136 113 97 149 156 133 135 159 169 172 173 181 184 180 215 249 263 268
181 181 184 184 181 177 172 163 164 174 183 187 180 171 155 177 187 184 179 175 163 161 175 140 156 184 115 93 234 198 212 222 221 220 187 156 135 115 107 108 123 122 122 122 121 120 117 117 110 342 326 290 285 284
178 180 182 176 172 164 164 171 175 188 183 160 155 167 166 153 171 174 178 173 165 189 158 188 135 163 184 181 233 226 231 232 237 198 170 158 144 129 122 121 122 120 116 113 110 121 133 159 273 280 293 302 303 303
178 176 177 172 173 160 159 177 184 165 123 153 155 166 166 161 179 187 179 177 181 182 163 160 155 189 215 219 230 240 243 228 212 183 167 161 153 146 141 137 133 129 128 132 154 198 233 253 269 281 287 296 304 303
180 174 168 173 171 161 138 130 183 124 146 157 153 157 163 164 167 170 173 181 183 176 193 198 206 213 214 217 248 280 279 207 189 171 170 167 163 157 151 148 148 150 157 193 243 258 269 280 289 292 295 300 302 302
168 167 170 172 165 168 133 142 135 139 132 129 154 148 137 149 144 166 175 182 186 212 224 217 210 196 187 163 12 322 269 203 184 180 173 175 174 169 164 153 157 175 248 275 282 282 282 285 291 297 300 302 302 299
164 161 159 164 158 119 112 147 132 127 119 143 152 152 143 165 166 179 172 188 217 216 206 220 225 220 233 252 277 299 208 180 180 192 187 188 175 163 161 165 221 318 296 279 272 272 281 293 300 303 303 299 294 290
155 158 159 154 123 102 126 136 101 114 119 163 145 113 151 151 167 163 202 218 215 211 216 223 223 222 227 238 244 250 202 187 185 166 168 159 162 174 200 254 276 298 282 271 273 284 292 296 300 301 296 289 285 288
156 155 152 134 115 109 145 110 110 110 100 155 132 115 167 143 161 203 251 215 209 210 222 227 228 224 224 229 228 226 219 202 184 171 176 185 190 219 275 244 288 301 285 274 280 290 295 294 292 289 285 280 283 291
139 169 129 101 125 116 117 126 108 99 120 142 111 134 179 157 159 210 225 221 218 226 231 230 229 231 233 237 235 222 215 217 219 221 224 220 232 241 245 275 303 292 281 282 289 292 292 289 283 273 272 282 296 309
125 159 139 132 157 119 161 132 154 153 121 106 113 128 141 124 154 233 203 203 215 225 226 224 224 225 227 228 227 223 219 225 228 227 231 220 225 252 277 286 281 277 280 283 284 280 267 255 257 269 283 299 316 325
133 144 132 130 138 118 88 81 127 105 117 142 161 159 145 160 210 226 195 202 211 213 216 216 220 225 230 229 228 227 228 221 224 232 240 242 252 260 260 261 267 272 270 264 254 245 252 263 270 283 306 324 343 358
122 156 144 164 123 126 117 114 133 154 153 153 132 165 168 183 199 189 197 201 205 205 207 206 207 209 211 209 211 214 213 209 209 212 216 224 233 242 251 254 248 237 226 222 227 231 228 220 207 51 65 81 92 101
198 145 139 126 84 59 80 141 154 127 141 161 125 162 166 136 162 174 171 179 183 179 185 187 184 185 189 191 193 196 198 199 202 207 213 217 213 212 214 207 198 190 188 188 179 167 151 128 109 102 106 104 103 102
106 128 96 69 76 88 18 97 123 132 135 132 122 122 122 128 146 156 160 165 165 168 170 167 173 176 180 186 186 183 190 197 200 199 212 210 199 190 184 179 171 162 154 141 129 121 115 114 114 112 113 110 107 105
354 99 74 53 80 54 109 116 117 118 118 109 118 124 121 133 149 148 156 160 163 167 168 168 172 173 174 176 179 178 175 179 185 184 180 182 181 172 160 153 151 144 132 125 121 118 119 120 117 117 114 111 107 94
9 75 118 103 106 142 114 110 78 69 68 77 78 113 125 124 128 156 163 164 165 172 170 168 174 172 169 167 162 161 158 158 156 159 158 159 157 151 147 145 139 132 129 127 125 121 118 118 116 112 106 99 73 7
81 88 92 105 121 177 165 113 72 85 49 63 55 99 98 123 142 155 168 167 167 168 168 166 163 164 163 161 157 151 151 152 150 149 145 144 144 141 138 134 130 131 133 129 124 121 118 115 111 102 78 27 357 344